TimePST,TemperatureF,Dew PointF,Humidity,Sea Level PressureIn,VisibilityMPH,Wind Direction,Wind SpeedMPH,Gust SpeedMPH,PrecipitationIn,Events,Conditions,WindDirDegrees,DateUTC
12:54 AM,57.9,42.1,56,30.12,10.0,NE,3.5,-,N/A,,Overcast,40,2013-01-24 08:54:00
1:54 AM,60.1,39.0,46,30.12,10.0,Calm,Calm,-,N/A,,Overcast,0,2013-01-24 09:54:00
2:54 AM,57.9,44.1,60,30.11,10.0,Calm,Calm,-,0.00,Rain,Light Rain,0,2013-01-24 10:54:00
3:54 AM,57.0,44.1,62,30.10,10.0,NNE,4.6,-,0.00,Rain,Light Rain,30,2013-01-24 11:54:00
4:54 AM,59.0,44.1,58,30.11,10.0,NNE,6.9,-,0.00,,Overcast,30,2013-01-24 12:54:00
5:54 AM,57.9,46.9,67,30.12,10.0,NNE,3.5,-,0.00,Rain,Light Rain,20,2013-01-24 13:54:00
6:54 AM,57.9,46.9,67,30.12,6.0,NE,5.8,-,0.00,Rain,Light Rain,40,2013-01-24 14:54:00
7:54 AM,57.9,46.0,65,30.14,6.0,Calm,Calm,-,0.00,Rain,Light Rain,0,2013-01-24 15:54:00
8:54 AM,57.9,48.9,72,30.17,5.0,NE,8.1,-,0.02,Rain,Light Rain,40,2013-01-24 16:54:00
9:54 AM,60.1,51.1,72,30.21,10.0,ENE,4.6,-,0.00,,Overcast,60,2013-01-24 17:54:00
10:54 AM,63.0,52.0,67,30.20,10.0,NE,9.2,-,0.00,,Overcast,40,2013-01-24 18:54:00
11:54 AM,64.9,52.0,63,30.16,10.0,NE,8.1,-,N/A,,Mostly Cloudy,50,2013-01-24 19:54:00
12:54 PM,66.9,53.1,61,30.13,10.0,NE,6.9,-,0.00,,Mostly Cloudy,50,2013-01-24 20:54:00
1:54 PM,69.1,52.0,54,30.12,10.0,Calm,Calm,-,N/A,,Mostly Cloudy,0,2013-01-24 21:54:00
2:54 PM,70.0,51.1,51,30.09,10.0,South,3.5,-,N/A,,Mostly Cloudy,190,2013-01-24 22:54:00
3:54 PM,71.1,52.0,51,30.10,10.0,Calm,Calm,-,N/A,,Scattered Clouds,0,2013-01-24 23:54:00
4:54 PM,66.9,52.0,59,30.11,10.0,SW,3.5,-,N/A,,Mostly Cloudy,230,2013-01-25 00:54:00
5:54 PM,64.0,51.1,63,30.12,10.0,Calm,Calm,-,N/A,,Scattered Clouds,0,2013-01-25 01:54:00
6:54 PM,62.1,51.1,67,30.12,10.0,Calm,Calm,-,N/A,,Mostly Cloudy,0,2013-01-25 02:54:00
7:54 PM,59.0,50.0,72,30.12,10.0,Calm,Calm,-,N/A,,Mostly Cloudy,0,2013-01-25 03:54:00
8:54 PM,60.1,51.1,72,30.14,10.0,Calm,Calm,-,N/A,,Mostly Cloudy,0,2013-01-25 04:54:00
9:54 PM,57.9,53.1,84,30.12,9.0,NE,3.5,-,0.02,Rain,Light Rain,50,2013-01-25 05:54:00
10:55 PM,60.1,54.0,80,30.09,10.0,North,-9999.0,-,0.02,,Overcast,0,2013-01-25 06:55:00
11:55 PM,62.1,55.4,79,30.09,10.0,NE,4.6,-,N/A,,Mostly Cloudy,50,2013-01-25 07:55:00